Weather reports worldwide

Advertisment
Moskva, Russia (27612): temperature & dewpoint: 14.06.2018 12:00:00 - 20.06.2018 12:00:00 (MSK)Moskva, Russia (27612): wind speed: 14.06.2018 12:00:00 - 20.06.2018 12:00:00 (MSK)Moskva, Russia (27612): wind direction: 14.06.2018 12:00:00 - 20.06.2018 12:00:00 (MSK)Moskva, Russia (27612): reduced air pressure: 14.06.2018 12:00:00 - 20.06.2018 12:00:00 (MSK)Moskva, Russia (27612): visibility: 14.06.2018 12:00:00 - 20.06.2018 12:00:00 (MSK)
Date & Time tt [°C] td [°C] ff [km/h] ff [kn] dd ppp [hPa] vv [km]
20.06.2018 12:00:00 - - - - - - -
20.06.2018 11:00:00 - - - - - - -
20.06.2018 10:00:00 - - - - - - -
20.06.2018 09:00:00 17,9 8,3 4 2 W 1010,2 10
20.06.2018 08:00:00 - - - - - - -
20.06.2018 07:00:00 - - - - - - -
20.06.2018 06:00:00 15,7 7,0 7 4 NW 1009,7 10
20.06.2018 05:00:00 - - - - - - -
20.06.2018 04:00:00 - - - - - - -
20.06.2018 03:00:00 18,9 12,1 4 2 W 1007,2 10
20.06.2018 02:00:00 - - - - - - -
20.06.2018 01:00:00 - - - - - - -
20.06.2018 00:00:00 19,1 14,9 4 2 SW 1008,1 -
19.06.2018 23:00:00 - - - - - - -
19.06.2018 22:00:00 - - - - - - -
19.06.2018 21:00:00 18,6 16,8 0 0 N 1009,3 4,0
19.06.2018 20:00:00 - - - - - - -
19.06.2018 19:00:00 - - - - - - -
19.06.2018 18:00:00 19,9 16,8 4 2 SSW 1010,4 10
19.06.2018 17:00:00 - - - - - - -
19.06.2018 16:00:00 - - - - - - -
19.06.2018 15:00:00 27,4 10,0 4 2 W 1010,6 10
19.06.2018 14:00:00 - - - - - - -
19.06.2018 13:00:00 - - - - - - -
19.06.2018 12:00:00 23,8 14,7 4 2 NW 1012,3 10
19.06.2018 11:00:00 - - - - - - -
19.06.2018 10:00:00 - - - - - - -
19.06.2018 09:00:00 24,6 15,7 0 0 N 1013,0 10
19.06.2018 08:00:00 - - - - - - -
19.06.2018 07:00:00 - - - - - - -
19.06.2018 06:00:00 19,8 14,8 0 0 N 1013,8 10
19.06.2018 05:00:00 - - - - - - -
19.06.2018 04:00:00 - - - - - - -
19.06.2018 03:00:00 16,7 12,6 0 0 N 1014,4 10
19.06.2018 02:00:00 - - - - - - -
19.06.2018 01:00:00 - - - - - - -
19.06.2018 00:00:00 17,1 11,5 0 0 N 1014,6 -
18.06.2018 23:00:00 - - - - - - -
18.06.2018 22:00:00 - - - - - - -
18.06.2018 21:00:00 21,1 11,3 0 0 N 1014,3 10
18.06.2018 20:00:00 - - - - - - -
18.06.2018 19:00:00 - - - - - - -
18.06.2018 18:00:00 27,2 6,8 4 2 WSW 1014,3 10
18.06.2018 17:00:00 - - - - - - -
18.06.2018 16:00:00 - - - - - - -
18.06.2018 15:00:00 26,8 6,6 4 2 NNW 1015,6 10
18.06.2018 14:00:00 - - - - - - -
18.06.2018 13:00:00 - - - - - - -
18.06.2018 12:00:00 25,6 7,4 4 2 WSW 1016,6 10
18.06.2018 11:00:00 - - - - - - -
18.06.2018 10:00:00 - - - - - - -
18.06.2018 09:00:00 24,6 8,0 4 2 E 1017,3 10
18.06.2018 08:00:00 - - - - - - -
18.06.2018 07:00:00 - - - - - - -
18.06.2018 06:00:00 15,9 12,8 0 0 N 1018,4 10
18.06.2018 05:00:00 - - - - - - -
18.06.2018 04:00:00 - - - - - - -
18.06.2018 03:00:00 13,4 10,7 0 0 N 1019,0 10
18.06.2018 02:00:00 - - - - - - -
18.06.2018 01:00:00 - - - - - - -
18.06.2018 00:00:00 15,1 10,8 0 0 N 1018,6 -
17.06.2018 23:00:00 - - - - - - -
17.06.2018 22:00:00 - - - - - - -
17.06.2018 21:00:00 19,9 9,9 0 0 N 1018,1 10
17.06.2018 20:00:00 - - - - - - -
17.06.2018 19:00:00 - - - - - - -
17.06.2018 18:00:00 24,7 5,8 4 2 E 1018,0 10
17.06.2018 17:00:00 - - - - - - -
17.06.2018 16:00:00 - - - - - - -
17.06.2018 15:00:00 24,2 6,2 4 2 ENE 1018,9 10
17.06.2018 14:00:00 - - - - - - -
17.06.2018 13:00:00 - - - - - - -
17.06.2018 12:00:00 23,4 5,7 4 2 ENE 1020,1 10
17.06.2018 11:00:00 - - - - - - -
17.06.2018 10:00:00 - - - - - - -
17.06.2018 09:00:00 22,1 7,8 4 2 E 1020,9 10
17.06.2018 08:00:00 - - - - - - -
17.06.2018 07:00:00 - - - - - - -
17.06.2018 06:00:00 13,7 10,6 0 0 N 1021,8 10
17.06.2018 05:00:00 - - - - - - -
17.06.2018 04:00:00 - - - - - - -
17.06.2018 03:00:00 11,4 8,7 0 0 N 1021,3 10
17.06.2018 02:00:00 - - - - - - -
17.06.2018 01:00:00 - - - - - - -
17.06.2018 00:00:00 13,8 8,7 0 0 N 1021,0 -
16.06.2018 23:00:00 - - - - - - -
16.06.2018 22:00:00 - - - - - - -
16.06.2018 21:00:00 18,3 7,4 0 0 N 1020,0 10
16.06.2018 20:00:00 - - - - - - -
16.06.2018 19:00:00 - - - - - - -
16.06.2018 18:00:00 23,2 3,9 4 2 E 1019,5 10
16.06.2018 17:00:00 - - - - - - -
16.06.2018 16:00:00 - - - - - - -
16.06.2018 15:00:00 23,7 3,8 4 2 ESE 1020,5 10
16.06.2018 14:00:00 - - - - - - -
16.06.2018 13:00:00 - - - - - - -
16.06.2018 12:00:00 21,9 2,7 4 2 SE 1021,5 10
16.06.2018 11:00:00 - - - - - - -
16.06.2018 10:00:00 - - - - - - -
16.06.2018 09:00:00 20,1 3,9 4 2 ESE 1022,1 10
16.06.2018 08:00:00 - - - - - - -
16.06.2018 07:00:00 - - - - - - -
16.06.2018 06:00:00 12,4 5,7 0 0 N 1022,2 10
16.06.2018 05:00:00 - - - - - - -
16.06.2018 04:00:00 - - - - - - -
16.06.2018 03:00:00 8,8 6,3 0 0 N 1021,6 10
16.06.2018 02:00:00 - - - - - - -
16.06.2018 01:00:00 - - - - - - -
16.06.2018 00:00:00 11,7 6,0 0 0 N 1020,8 -
15.06.2018 23:00:00 - - - - - - -
15.06.2018 22:00:00 - - - - - - -
15.06.2018 21:00:00 17,5 1,8 0 0 N 1019,2 10
15.06.2018 20:00:00 - - - - - - -
15.06.2018 19:00:00 - - - - - - -
15.06.2018 18:00:00 20,4 1,6 7 4 SSE 1019,0 10
15.06.2018 17:00:00 - - - - - - -
15.06.2018 16:00:00 - - - - - - -
15.06.2018 15:00:00 20,6 0,1 4 2 SSE 1019,6 10
15.06.2018 14:00:00 - - - - - - -
15.06.2018 13:00:00 - - - - - - -
15.06.2018 12:00:00 19,0 1,1 7 4 S 1020,1 10
15.06.2018 11:00:00 - - - - - - -
15.06.2018 10:00:00 - - - - - - -
15.06.2018 09:00:00 16,8 1,9 7 4 ESE 1020,1 10
15.06.2018 08:00:00 - - - - - - -
15.06.2018 07:00:00 - - - - - - -
15.06.2018 06:00:00 12,0 5,7 0 0 N 1020,0 10
15.06.2018 05:00:00 - - - - - - -
15.06.2018 04:00:00 - - - - - - -
15.06.2018 03:00:00 10,2 6,5 0 0 N 1019,4 10
15.06.2018 02:00:00 - - - - - - -
15.06.2018 01:00:00 - - - - - - -
15.06.2018 00:00:00 11,2 6,4 0 0 N 1018,7 -
14.06.2018 23:00:00 - - - - - - -
14.06.2018 22:00:00 - - - - - - -
14.06.2018 21:00:00 14,8 3,9 0 0 N 1017,3 10
14.06.2018 20:00:00 - - - - - - -
14.06.2018 19:00:00 - - - - - - -
14.06.2018 18:00:00 16,7 2,4 4 2 E 1016,7 10
14.06.2018 17:00:00 - - - - - - -
14.06.2018 16:00:00 - - - - - - -
14.06.2018 15:00:00 16,2 3,7 4 2 NNE 1016,8 10
14.06.2018 14:00:00 - - - - - - -
14.06.2018 13:00:00 - - - - - - -
14.06.2018 12:00:00 14,5 3,2 7 4 NE 1016,9 10

tt = temperature
td = dewpoint
ff = wind speed
dd = wind direction
ppp = reduced air pressure
vv = visibility

Next stations